Back to catalog

STARLINK-6262

AliveCommunicationsVLEO
NORAD 57091·PAYLOAD·🇺🇸 United States

Launched Jun 22, 2023 from Vandenberg Space Force Base

Loading…

Next Passes (next 24 hours)

TLE

FreshSource: CelesTrak SupGP

Epoch: Sep 14, 2026, 13:46 UTC

1 57091C 23088AV  26257.57409722  .00023184  00000+0  83970-3 0  2575
2 57091  43.0005 109.1906 0001574 261.9123 335.2128 15.27567092    12

Track STARLINK-6262 in real time with AllMySat

Download on the App Store